| time (UTC) | temp F | wind direction | speed MPH | gust MPH | rain 1hr in | rain 24hr in | rain mn in | humidity % | barometer mb |
| 20260503031557 | 53 | 0 | 0.0 | 0.0 | 0.00 | 0.00 | 0.00 | 50 | 1018.3 |
| 20260503031049 | 53 | 0 | 0.0 | 0.0 | 0.00 | 0.00 | 0.00 | 51 | 1018.2 |
| 20260503030547 | 52 | 0 | 0.0 | 0.0 | 0.00 | 0.00 | 0.00 | 52 | 1018.1 |
| 20260503030055 | 51 | 0 | 0.0 | 0.0 | 0.00 | 0.00 | 0.00 | 52 | 1018.2 |
| 20260503025548 | 51 | 0 | 0.0 | 0.0 | 0.00 | 0.00 | 0.00 | 52 | 1018.3 |
| 20260503025048 | 51 | 0 | 0.0 | 0.0 | 0.00 | 0.00 | 0.00 | 51 | 1018.1 |
| 20260503024553 | 51 | 0 | 0.0 | 0.0 | 0.00 | 0.00 | 0.00 | 51 | 1018.1 |
| 20260503024048 | 51 | 0 | 0.0 | 0.0 | 0.00 | 0.00 | 0.00 | 50 | 1018.2 |
| 20260503023545 | 52 | 0 | 0.0 | 0.0 | 0.00 | 0.00 | 0.00 | 49 | 1018.1 |
| 20260503023053 | 52 | 0 | 0.0 | 0.0 | 0.00 | 0.00 | 0.00 | 48 | 1018.0 |
| 20260503022549 | 52 | 0 | 0.0 | 0.0 | 0.00 | 0.00 | 0.00 | 47 | 1018.0 |
| 20260503022048 | 53 | 0 | 0.0 | 0.0 | 0.00 | 0.00 | 0.00 | 47 | 1018.0 |
| 20260503021551 | 53 | 0 | 0.0 | 0.0 | 0.00 | 0.00 | 0.00 | 46 | 1018.0 |
| 20260503021049 | 53 | 0 | 0.0 | 0.0 | 0.00 | 0.00 | 0.00 | 47 | 1017.9 |
| 20260503020549 | 54 | 0 | 0.0 | 0.0 | 0.00 | 0.00 | 0.00 | 46 | 1017.9 |
| 20260503020051 | 54 | 0 | 0.0 | 0.0 | 0.00 | 0.00 | 0.00 | 46 | 1017.9 |
| 20260503015546 | 55 | 0 | 0.0 | 5.0 | 0.00 | 0.00 | 0.00 | 44 | 1017.8 |
| 20260503015048 | 56 | 0 | 0.0 | 5.0 | 0.00 | 0.00 | 0.00 | 44 | 1017.8 |
| 20260503014610 | 57 | 0 | 4.0 | 5.0 | 0.00 | 0.00 | 0.00 | 43 | 1017.7 |
| 20260503014049 | 57 | 141 | 4.0 | 5.0 | 0.00 | 0.00 | 0.00 | 42 | 1017.6 |
| 20260503013549 | 59 | 146 | 3.0 | 5.0 | 0.00 | 0.00 | 0.00 | 41 | 1017.6 |
| 20260503013055 | 61 | 0 | 0.0 | 0.0 | 0.00 | 0.00 | 0.00 | 40 | 1017.6 |
| 20260503012550 | 63 | 0 | 0.0 | 0.0 | 0.00 | 0.00 | 0.00 | 38 | 1017.6 |
| 20260503012049 | 65 | 0 | 0.0 | 0.0 | 0.00 | 0.00 | 0.00 | 37 | 1017.7 |
| 20260503011551 | 67 | 0 | 0.0 | 0.0 | 0.00 | 0.00 | 0.00 | 34 | 1017.7 |
| 20260503011047 | 69 | 0 | 0.0 | 0.0 | 0.00 | 0.00 | 0.00 | 31 | 1017.9 |
| 20260503010549 | 71 | 0 | 0.0 | 4.0 | 0.00 | 0.00 | 0.00 | 28 | 1017.8 |
| 20260503010055 | 71 | 0 | 0.0 | 6.0 | 0.00 | 0.00 | 0.00 | 27 | 1017.7 |
| 20260503005549 | 72 | 211 | 1.0 | 6.0 | 0.00 | 0.00 | 0.00 | 26 | 1017.6 |
| 20260503005052 | 73 | 222 | 0.0 | 5.0 | 0.00 | 0.00 | 0.00 | 26 | 1017.5 |
| 20260503004555 | 73 | 0 | 0.0 | 3.0 | 0.00 | 0.00 | 0.00 | 25 | 1017.6 |
| 20260503004050 | 73 | 160 | 0.0 | 5.0 | 0.00 | 0.00 | 0.00 | 26 | 1017.6 |
| 20260503003549 | 72 | 0 | 0.0 | 7.0 | 0.00 | 0.00 | 0.00 | 26 | 1017.7 |
| 20260503003053 | 72 | 254 | 2.0 | 7.0 | 0.00 | 0.00 | 0.00 | 25 | 1017.7 |
| 20260503002549 | 72 | 260 | 0.0 | 7.0 | 0.00 | 0.00 | 0.00 | 25 | 1017.8 |
| 20260503002048 | 72 | 0 | 2.0 | 7.0 | 0.00 | 0.00 | 0.00 | 25 | 1017.9 |
| 20260503001552 | 72 | 280 | 4.0 | 7.0 | 0.00 | 0.00 | 0.00 | 25 | 1017.9 |
| 20260503001048 | 73 | 0 | 0.0 | 0.0 | 0.00 | 0.00 | 0.00 | 24 | 1017.9 |
| 20260503000550 | 73 | 0 | 0.0 | 0.0 | 0.00 | 0.00 | 0.00 | 25 | 1017.9 |
| 20260503000053 | 73 | 0 | 0.0 | 4.0 | 0.00 | 0.00 | 0.00 | 25 | 1017.9 |
| 20260502235548 | 72 | 0 | 0.0 | 7.0 | 0.00 | 0.00 | 0.00 | 25 | 1017.9 |
| 20260502235045 | 72 | 0 | 4.0 | 7.0 | 0.00 | 0.00 | 0.00 | 24 | 1018.1 |
| 20260502234551 | 73 | 290 | 0.0 | 9.0 | 0.00 | 0.00 | 0.00 | 24 | 1018.0 |
| 20260502234049 | 72 | 217 | 3.0 | 9.0 | 0.00 | 0.00 | 0.00 | 25 | 1018.0 |
| 20260502233550 | 72 | 0 | 0.0 | 0.0 | 0.00 | 0.00 | 0.00 | 25 | 1018.1 |
| 20260502233102 | 72 | 0 | 0.0 | 7.0 | 0.00 | 0.00 | 0.00 | 25 | 1018.2 |
| 20260502232548 | 72 | 0 | 0.0 | 9.0 | 0.00 | 0.00 | 0.00 | 25 | 1018.2 |
| 20260502232049 | 72 | 229 | 5.0 | 14.0 | 0.00 | 0.00 | 0.00 | 25 | 1018.2 |
| 20260502231602 | 72 | 221 | 8.0 | 14.0 | 0.00 | 0.00 | 0.00 | 25 | 1018.2 |
| 20260502231047 | 73 | 257 | 7.0 | 13.0 | 0.00 | 0.00 | 0.00 | 24 | 1018.1 |
| 20260502230548 | 73 | 219 | 9.0 | 13.0 | 0.00 | 0.00 | 0.00 | 25 | 1018.2 |
| 20260502230055 | 72 | 0 | 2.0 | 12.0 | 0.00 | 0.00 | 0.00 | 25 | 1018.2 |
| 20260502225546 | 72 | 253 | 5.0 | 14.0 | 0.00 | 0.00 | 0.00 | 26 | 1018.2 |
| 20260502225048 | 73 | 0 | 2.0 | 14.0 | 0.00 | 0.00 | 0.00 | 25 | 1018.3 |
| 20260502224553 | 73 | 266 | 8.0 | 14.0 | 0.00 | 0.00 | 0.00 | 26 | 1018.4 |
| 20260502224049 | 72 | 0 | 0.0 | 8.0 | 0.00 | 0.00 | 0.00 | 27 | 1018.3 |
| 20260502223549 | 72 | 290 | 3.0 | 8.0 | 0.00 | 0.00 | 0.00 | 25 | 1018.4 |
| 20260502223053 | 72 | 0 | 0.0 | 13.0 | 0.00 | 0.00 | 0.00 | 26 | 1018.3 |
| 20260502222546 | 72 | 197 | 4.0 | 15.0 | 0.00 | 0.00 | 0.00 | 26 | 1018.5 |
| 20260502222049 | 72 | 285 | 6.0 | 15.0 | 0.00 | 0.00 | 0.00 | 26 | 1018.6 |
| 20260502221550 | 72 | 209 | 8.0 | 15.0 | 0.00 | 0.00 | 0.00 | 25 | 1018.6 |
| 20260502221049 | 72 | 207 | 4.0 | 11.0 | 0.00 | 0.00 | 0.00 | 27 | 1018.8 |
| 20260502220547 | 72 | 205 | 5.0 | 11.0 | 0.00 | 0.00 | 0.00 | 28 | 1018.9 |
| 20260502215546 | 71 | 0 | 5.0 | 11.0 | 0.00 | 0.00 | 0.00 | 27 | 1019.1 |
| 20260502215046 | 70 | 319 | 4.0 | 11.0 | 0.00 | 0.00 | 0.00 | 27 | 1018.9 |
| 20260502214555 | 71 | 292 | 4.0 | 11.0 | 0.00 | 0.00 | 0.00 | 27 | 1019.0 |
| 20260502214047 | 71 | 290 | 7.0 | 11.0 | 0.00 | 0.00 | 0.00 | 26 | 1019.2 |
| 20260502213549 | 71 | 261 | 4.0 | 14.0 | 0.00 | 0.00 | 0.00 | 27 | 1019.2 |
| 20260502213053 | 71 | 0 | 1.0 | 14.0 | 0.00 | 0.00 | 0.00 | 30 | 1019.4 |
| 20260502212549 | 71 | 252 | 3.0 | 14.0 | 0.00 | 0.00 | 0.00 | 28 | 1019.4 |
| 20260502212049 | 71 | 92 | 0.0 | 8.0 | 0.00 | 0.00 | 0.00 | 29 | 1019.5 |
| 20260502211555 | 71 | 0 | 1.0 | 8.0 | 0.00 | 0.00 | 0.00 | 28 | 1019.6 |
| 20260502211049 | 70 | 134 | 0.0 | 13.0 | 0.00 | 0.00 | 0.00 | 28 | 1019.8 |
| 20260502210548 | 70 | 322 | 9.0 | 13.0 | 0.00 | 0.00 | 0.00 | 28 | 1019.8 |
| 20260502210059 | 70 | 312 | 3.0 | 10.0 | 0.00 | 0.00 | 0.00 | 28 | 1019.9 |
| 20260502205548 | 70 | 0 | 0.0 | 10.0 | 0.00 | 0.00 | 0.00 | 29 | 1020.1 |
| 20260502205050 | 70 | 265 | 7.0 | 21.0 | 0.00 | 0.00 | 0.00 | 29 | 1020.1 |
| 20260502204554 | 70 | 321 | 4.0 | 21.0 | 0.00 | 0.00 | 0.00 | 30 | 1020.1 |
| 20260502204049 | 70 | 257 | 3.0 | 11.0 | 0.00 | 0.00 | 0.00 | 30 | 1020.2 |
| 20260502203547 | 70 | 351 | 2.0 | 11.0 | 0.00 | 0.00 | 0.00 | 30 | 1020.2 |
| 20260502203052 | 70 | 0 | 5.0 | 8.0 | 0.00 | 0.00 | 0.00 | 29 | 1020.3 |
| 20260502202546 | 69 | 0 | 3.0 | 12.0 | 0.00 | 0.00 | 0.00 | 31 | 1020.4 |
| 20260502202049 | 69 | 300 | 4.0 | 12.0 | 0.00 | 0.00 | 0.00 | 30 | 1020.6 |
| 20260502201555 | 70 | 268 | 5.0 | 12.0 | 0.00 | 0.00 | 0.00 | 30 | 1020.6 |
| 20260502201048 | 70 | 149 | 4.0 | 10.0 | 0.00 | 0.00 | 0.00 | 31 | 1020.6 |
| 20260502200547 | 69 | 0 | 0.0 | 6.0 | 0.00 | 0.00 | 0.00 | 32 | 1020.8 |
| 20260502200101 | 69 | 217 | 0.0 | 13.0 | 0.00 | 0.00 | 0.00 | 32 | 1020.8 |
| 20260502195548 | 68 | 0 | 0.0 | 13.0 | 0.00 | 0.00 | 0.00 | 32 | 1020.9 |
| 20260502195048 | 69 | 283 | 3.0 | 8.0 | 0.00 | 0.00 | 0.00 | 31 | 1020.8 |
| 20260502194559 | 69 | 0 | 1.0 | 9.0 | 0.00 | 0.00 | 0.00 | 35 | 1020.9 |
| 20260502194045 | 68 | 0 | 5.0 | 9.0 | 0.00 | 0.00 | 0.00 | 32 | 1020.9 |
| 20260502193547 | 68 | 278 | 1.0 | 10.0 | 0.00 | 0.00 | 0.00 | 34 | 1020.9 |
| 20260502193051 | 68 | 101 | 4.0 | 10.0 | 0.00 | 0.00 | 0.00 | 32 | 1021.1 |
| 20260502192550 | 68 | 270 | 3.0 | 10.0 | 0.00 | 0.00 | 0.00 | 34 | 1021.1 |
| 20260502192047 | 68 | 0 | 0.0 | 8.0 | 0.00 | 0.00 | 0.00 | 35 | 1021.2 |
| 20260502191555 | 67 | 0 | 3.0 | 8.0 | 0.00 | 0.00 | 0.00 | 35 | 1021.4 |
| 20260502191049 | 67 | 271 | 5.0 | 8.0 | 0.00 | 0.00 | 0.00 | 37 | 1021.4 |
| 20260502190547 | 67 | 0 | 0.0 | 3.0 | 0.00 | 0.00 | 0.00 | 38 | 1021.4 |
| 20260502185546 | 66 | 0 | 4.0 | 11.0 | 0.00 | 0.00 | 0.00 | 38 | 1021.4 |
| 20260502185052 | 66 | 149 | 5.0 | 11.0 | 0.00 | 0.00 | 0.00 | 39 | 1021.5 |
| 20260502184557 | 65 | 0 | 0.0 | 8.0 | 0.00 | 0.00 | 0.00 | 41 | 1021.5 |
| 20260502184049 | 65 | 0 | 0.0 | 9.0 | 0.00 | 0.00 | 0.00 | 40 | 1021.6 |
| 20260502183549 | 65 | 44 | 3.0 | 12.0 | 0.00 | 0.00 | 0.00 | 41 | 1021.6 |
| 20260502183051 | 65 | 26 | 3.0 | 13.0 | 0.00 | 0.00 | 0.00 | 41 | 1021.8 |
| 20260502182548 | 65 | 93 | 6.0 | 13.0 | 0.00 | 0.00 | 0.00 | 42 | 1021.9 |
| 20260502182047 | 65 | 91 | 6.0 | 12.0 | 0.00 | 0.00 | 0.00 | 41 | 1021.9 |
| 20260502181556 | 65 | 139 | 7.0 | 13.0 | 0.00 | 0.00 | 0.00 | 42 | 1022.0 |
| 20260502181047 | 65 | 107 | 5.0 | 13.0 | 0.00 | 0.00 | 0.00 | 41 | 1022.0 |
| 20260502180547 | 65 | 70 | 4.0 | 10.0 | 0.00 | 0.00 | 0.00 | 42 | 1022.0 |
| 20260502180121 | 64 | 0 | 0.0 | 11.0 | 0.00 | 0.00 | 0.00 | 43 | 1022.1 |
| 20260502164047 | 61 | 89 | 6.0 | 19.0 | 0.00 | 0.00 | 0.00 | 53 | 1022.8 |
| 20260502163547 | 60 | 96 | 6.0 | 14.0 | 0.00 | 0.00 | 0.00 | 53 | 1022.7 |
| 20260502163053 | 60 | 144 | 10.0 | 14.0 | 0.00 | 0.00 | 0.00 | 52 | 1022.7 |
| 20260502162546 | 60 | 70 | 4.0 | 12.0 | 0.00 | 0.00 | 0.00 | 54 | 1022.6 |
| 20260502162049 | 59 | 79 | 6.0 | 12.0 | 0.00 | 0.00 | 0.00 | 55 | 1022.7 |
| 20260502161559 | 59 | 120 | 8.0 | 13.0 | 0.00 | 0.00 | 0.00 | 55 | 1022.7 |
| 20260502161045 | 59 | 131 | 5.0 | 13.0 | 0.00 | 0.00 | 0.00 | 56 | 1022.8 |
| 20260502160548 | 59 | 94 | 7.0 | 13.0 | 0.00 | 0.00 | 0.00 | 55 | 1022.8 |
| 20260502152049 | 57 | 75 | 2.0 | 13.0 | 0.00 | 0.00 | 0.00 | 60 | 1022.7 |
| 20260502151608 | 57 | 75 | 5.0 | 13.0 | 0.00 | 0.00 | 0.00 | 60 | 1022.7 |
| 20260502151050 | 56 | 149 | 6.0 | 13.0 | 0.00 | 0.00 | 0.00 | 60 | 1022.7 |
| 20260502150547 | 56 | 104 | 5.0 | 11.0 | 0.00 | 0.00 | 0.00 | 61 | 1022.8 |
| 20260502130547 | 43 | 82 | 2.0 | 6.0 | 0.00 | 0.00 | 0.00 | 88 | 1022.0 |
| 20260502123548 | 38 | 0 | 0.0 | 0.0 | 0.00 | 0.00 | 0.00 | 90 | 1021.7 |
| 20260502123058 | 37 | 0 | 0.0 | 0.0 | 0.00 | 0.00 | 0.00 | 90 | 1021.7 |
| 20260502122550 | 37 | 0 | 0.0 | 0.0 | 0.00 | 0.00 | 0.00 | 90 | 1021.6 |
| 20260502122048 | 36 | 0 | 0.0 | 0.0 | 0.00 | 0.00 | 0.00 | 89 | 1021.3 |
| 20260502121603 | 36 | 0 | 0.0 | 0.0 | 0.00 | 0.00 | 0.00 | 89 | 1021.3 |
| 20260502121048 | 36 | 0 | 0.0 | 0.0 | 0.00 | 0.00 | 0.00 | 89 | 1021.2 |
| 20260502120548 | 36 | 0 | 0.0 | 0.0 | 0.00 | 0.00 | 0.00 | 89 | 1021.1 |
| 20260502115551 | 36 | 0 | 0.0 | 4.0 | 0.00 | 0.00 | 0.00 | 90 | 1021.1 |
| 20260502115048 | 36 | 0 | 0.0 | 4.0 | 0.00 | 0.00 | 0.00 | 90 | 1021.0 |
| 20260502114550 | 36 | 0 | 0.0 | 4.0 | 0.00 | 0.00 | 0.00 | 90 | 1020.9 |
| 20260502114048 | 35 | 0 | 0.0 | 1.0 | 0.00 | 0.00 | 0.00 | 89 | 1020.9 |
| 20260502113549 | 35 | 0 | 0.0 | 0.0 | 0.00 | 0.00 | 0.00 | 89 | 1020.7 |
| 20260502113057 | 35 | 0 | 0.0 | 0.0 | 0.00 | 0.00 | 0.00 | 89 | 1020.8 |
| 20260502112549 | 35 | 0 | 0.0 | 0.0 | 0.00 | 0.00 | 0.00 | 89 | 1020.7 |
| 20260502112048 | 35 | 0 | 0.0 | 0.0 | 0.00 | 0.00 | 0.00 | 88 | 1020.8 |
| 20260502111559 | 36 | 0 | 0.0 | 0.0 | 0.00 | 0.00 | 0.00 | 89 | 1020.8 |
| 20260502111048 | 36 | 0 | 0.0 | 5.0 | 0.00 | 0.00 | 0.00 | 90 | 1020.9 |
| 20260502110549 | 36 | 0 | 0.0 | 5.0 | 0.00 | 0.00 | 0.00 | 90 | 1020.9 |
| 20260502110055 | 35 | 0 | 0.0 | 0.0 | 0.00 | 0.00 | 0.00 | 89 | 1020.6 |
| 20260502105547 | 35 | 0 | 0.0 | 0.0 | 0.00 | 0.00 | 0.00 | 88 | 1020.6 |
| 20260502105046 | 35 | 0 | 0.0 | 0.0 | 0.00 | 0.00 | 0.00 | 88 | 1020.6 |
| 20260502104554 | 35 | 0 | 0.0 | 0.0 | 0.00 | 0.00 | 0.00 | 88 | 1020.5 |
| 20260502104047 | 35 | 0 | 0.0 | 0.0 | 0.00 | 0.00 | 0.00 | 88 | 1020.6 |
| 20260502103549 | 35 | 0 | 0.0 | 0.0 | 0.00 | 0.00 | 0.00 | 88 | 1020.5 |
| 20260502103105 | 36 | 0 | 0.0 | 0.0 | 0.00 | 0.00 | 0.00 | 89 | 1020.4 |
| 20260502102548 | 35 | 0 | 0.0 | 0.0 | 0.00 | 0.00 | 0.00 | 88 | 1020.2 |
| 20260502102048 | 35 | 0 | 0.0 | 0.0 | 0.00 | 0.00 | 0.00 | 87 | 1020.2 |
| 20260502101620 | 36 | 0 | 0.0 | 0.0 | 0.00 | 0.00 | 0.00 | 87 | 1020.2 |
| 20260502101048 | 36 | 0 | 0.0 | 0.0 | 0.00 | 0.00 | 0.00 | 88 | 1020.2 |
| 20260502100549 | 36 | 0 | 0.0 | 0.0 | 0.00 | 0.00 | 0.00 | 88 | 1020.1 |
| 20260502100110 | 36 | 0 | 0.0 | 0.0 | 0.00 | 0.00 | 0.00 | 88 | 1020.1 |
| 20260502091046 | 36 | 0 | 0.0 | 0.0 | 0.00 | 0.00 | 0.00 | 87 | 1019.9 |
| 20260502090551 | 37 | 0 | 0.0 | 0.0 | 0.00 | 0.00 | 0.00 | 87 | 1019.9 |
| 20260502080105 | 37 | 0 | 0.0 | 0.0 | 0.00 | 0.00 | 0.00 | 82 | 1020.0 |
| 20260502071047 | 40 | 0 | 0.0 | 0.0 | 0.00 | 0.00 | 0.00 | 80 | 1020.1 |
| 20260502070548 | 41 | 0 | 0.0 | 0.0 | 0.00 | 0.00 | 0.00 | 79 | 1020.2 |
| 20260502070050 | 41 | 0 | 0.0 | 7.0 | 0.00 | 0.00 | 0.00 | 79 | 1020.2 |
| 20260502065548 | 42 | 0 | 1.0 | 7.0 | 0.00 | 0.00 | 0.00 | 79 | 1020.2 |
| 20260502065046 | 42 | 355 | 1.0 | 7.0 | 0.00 | 0.00 | 0.00 | 77 | 1020.3 |
| 20260502064550 | 43 | 0 | 0.0 | 0.0 | 0.00 | 0.00 | 0.00 | 78 | 1020.2 |
| 20260502064047 | 43 | 0 | 0.0 | 0.0 | 0.00 | 0.00 | 0.00 | 78 | 1020.1 |
| 20260502063546 | 43 | 0 | 0.0 | 0.0 | 0.00 | 0.00 | 0.00 | 78 | 1020.2 |
| 20260502063054 | 43 | 0 | 0.0 | 0.0 | 0.00 | 0.00 | 0.00 | 77 | 1020.3 |
| 20260502062547 | 43 | 0 | 0.0 | 0.0 | 0.00 | 0.00 | 0.00 | 76 | 1020.1 |
| 20260502062046 | 44 | 0 | 0.0 | 0.0 | 0.00 | 0.00 | 0.00 | 75 | 1020.0 |
| 20260502061551 | 44 | 0 | 0.0 | 0.0 | 0.00 | 0.00 | 0.00 | 75 | 1020.0 |
| 20260502061046 | 45 | 0 | 0.0 | 0.0 | 0.00 | 0.00 | 0.00 | 76 | 1020.1 |
| 20260502060545 | 45 | 0 | 0.0 | 0.0 | 0.00 | 0.00 | 0.00 | 75 | 1020.0 |
| 20260502060107 | 45 | 0 | 0.0 | 0.0 | 0.00 | 0.00 | 0.00 | 75 | 1020.0 |
| 20260502055547 | 45 | 0 | 0.0 | 0.0 | 0.00 | 0.00 | 0.00 | 74 | 1020.1 |
| 20260502055047 | 45 | 0 | 0.0 | 0.0 | 0.00 | 0.00 | 0.00 | 74 | 1020.2 |
| 20260502054553 | 46 | 0 | 0.0 | 0.0 | 0.00 | 0.00 | 0.00 | 74 | 1020.1 |
| 20260502054047 | 45 | 0 | 0.0 | 0.0 | 0.00 | 0.00 | 0.00 | 75 | 1020.1 |
| 20260502053547 | 45 | 0 | 0.0 | 0.0 | 0.00 | 0.00 | 0.00 | 73 | 1020.2 |
| 20260502053103 | 45 | 0 | 0.0 | 0.0 | 0.00 | 0.00 | 0.00 | 73 | 1020.2 |
| 20260502052547 | 46 | 0 | 0.0 | 0.0 | 0.00 | 0.00 | 0.00 | 72 | 1020.2 |
| 20260502052047 | 46 | 0 | 0.0 | 0.0 | 0.00 | 0.00 | 0.00 | 69 | 1020.2 |
| 20260502051559 | 47 | 0 | 0.0 | 0.0 | 0.00 | 0.00 | 0.00 | 70 | 1020.2 |
| 20260502051048 | 47 | 0 | 0.0 | 0.0 | 0.00 | 0.00 | 0.00 | 70 | 1020.2 |
| 20260502050551 | 48 | 0 | 0.0 | 0.0 | 0.00 | 0.00 | 0.00 | 69 | 1020.3 |
| 20260502050056 | 49 | 0 | 0.0 | 5.0 | 0.00 | 0.00 | 0.00 | 69 | 1020.2 |
| 20260502045549 | 49 | 0 | 0.0 | 7.0 | 0.00 | 0.00 | 0.00 | 68 | 1020.1 |
| 20260502045048 | 50 | 0 | 4.0 | 12.0 | 0.00 | 0.00 | 0.00 | 68 | 1020.0 |
| 20260502044551 | 50 | 318 | 5.0 | 12.0 | 0.00 | 0.00 | 0.00 | 67 | 1019.8 |
| 20260502044048 | 50 | 233 | 5.0 | 12.0 | 0.00 | 0.00 | 0.00 | 69 | 1019.7 |
| 20260502043548 | 49 | 0 | 0.0 | 4.0 | 0.00 | 0.00 | 0.00 | 69 | 1019.9 |
| 20260502043052 | 50 | 0 | 0.0 | 4.0 | 0.00 | 0.00 | 0.00 | 67 | 1019.8 |
| 20260502042548 | 50 | 0 | 0.0 | 4.0 | 0.00 | 0.00 | 0.00 | 68 | 1019.7 |
| 20260502042048 | 51 | 0 | 0.0 | 7.0 | 0.00 | 0.00 | 0.00 | 67 | 1019.6 |
| 20260502041552 | 51 | 0 | 0.0 | 7.0 | 0.00 | 0.00 | 0.00 | 68 | 1019.6 |
| 20260502041050 | 51 | 0 | 1.0 | 7.0 | 0.00 | 0.00 | 0.00 | 68 | 1019.5 |
| 20260502040545 | 50 | 0 | 0.0 | 0.0 | 0.00 | 0.00 | 0.00 | 68 | 1019.5 |
| 20260502040050 | 50 | 0 | 0.0 | 0.0 | 0.00 | 0.00 | 0.00 | 68 | 1019.5 |
| 20260502035548 | 50 | 0 | 0.0 | 0.0 | 0.00 | 0.00 | 0.00 | 68 | 1019.4 |
| 20260502035048 | 50 | 0 | 0.0 | 0.0 | 0.00 | 0.00 | 0.00 | 66 | 1019.4 |
| 20260502034554 | 51 | 0 | 0.0 | 0.0 | 0.00 | 0.00 | 0.00 | 65 | 1019.4 |
| 20260502034048 | 51 | 0 | 0.0 | 0.0 | 0.00 | 0.00 | 0.00 | 64 | 1019.4 |
| 20260502033548 | 52 | 0 | 0.0 | 0.0 | 0.00 | 0.00 | 0.00 | 63 | 1019.4 |
| 20260502033057 | 52 | 0 | 0.0 | 6.0 | 0.00 | 0.00 | 0.00 | 63 | 1019.3 |
| 20260502032548 | 52 | 0 | 0.0 | 7.0 | 0.00 | 0.00 | 0.00 | 63 | 1019.3 |
| 20260502032047 | 52 | 0 | 1.0 | 7.0 | 0.00 | 0.00 | 0.00 | 63 | 1019.2 |